User: anonymous   Login
Location: Unspecified
(0.0000°N, 0.0000°E)
Time: 22:49:09
(UTC+00:00)
Language:

Cosmos 1726 - Orbit

View from above orbital plane
View from above orbital plane
View from above satellite
View from above satellite

Ground track
Ground track

The orbit data is extracted from the following two-line orbital elements,

1 16495U 86006A   18019.53830914  .00000913  00000-0  36547-4 0  9999
2 16495  82.4717 214.0003 0013789 150.5789 209.6227 15.23675083749254
Epoch (UTC): 19 January 2018 12:55:09
Eccentricity: 0.0013789
inclination: 82.4717°
perigee height: 485 km
apogee height: 504 km
right ascension of ascending node: 214.0003°
argument of perigee: 150.5789°
revolutions per day: 15.23675083
mean anomaly at epoch: 209.6227°
orbit number at epoch: 74925

The dashed part of the orbit path shows where the satellite is in the earth's shadow,  

DLR